Regional Weather Roundup
Issued by NWS Boston, MA

Home | Current Version | Previous Version | Text Only | Print | Product List | Glossary On
Versions: 1 2 3 4 5 6 7 8 9 10 11 12 13 14 15 16 17 18 19 20 21 22 23 24 25 26 27 28 29 30 31 32 33 34 35 36 37 38 39 40 41 42 43 44 45 46 47 48 49 50
000
ASUS41 KBOX 250910
RWRBOX

REGIONAL WEATHER ROUNDUP
NATIONAL WEATHER SERVICE TAUNTON MA
500 AM EDT FRI JUL 25 2014

NOTE:  "FAIR" INDICATES FEW OR NO CLOUDS BELOW 12,000 FEET WITH NO
SIGNIFICANT WEATHER AND/OR OBSTRUCTIONS TO VISIBILITY.  THE FOLLOWING
OBSERVATION LOCATIONS DO NOT REPORT PRESENT WEATHER...PROVINCETOWN...
SMITHFIELD...BLOCK ISLAND...KEENE...AND OXFORD.

MAZALL-251000-
EASTERN MASSACHUSETTS

CITY           SKY/WX    TMP DP  RH WIND       PRES   REMARKS
BOSTON         MOCLDY    63  52  67 NW12      29.93R
BEVERLY        MOCLDY    58  52  80 NW7       29.92R
LAWRENCE       PTCLDY    58  52  80 VRB3      29.95R
BEDFORD        MOCLDY    53  52  96 CALM      29.93R
BLUE HILL        N/A     58  52  80 NW10      29.93R
NORWOOD        MOCLDY    57  52  83 CALM      29.93R
MARSHFIELD     MOCLDY    61  55  82 W3        29.93S
PLYMOUTH       MOCLDY    61  56  83 NW3       29.92R
TAUNTON        MOCLDY    58  55  90 CALM      29.92R
NEW BEDFORD    MOCLDY    62  58  86 NW3       29.92R
$$

MAZALL-251000-
CAPE COD AND THE ISLANDS

CITY           SKY/WX    TMP DP  RH WIND       PRES   REMARKS
FALMOUTH       CLOUDY    63  59  88 N5        29.92R
HYANNIS        CLOUDY    64  61  90 NW7       29.89R
CHATHAM        MOCLDY    64  61  90 NW5       29.91R
PROVINCETOWN   MOCLDY    63  59  88 NW8       29.92R
NANTUCKET      PTCLDY    65  62  90 N8        29.90R
MARTHAS VNYRD  CLOUDY    64  62  93 NW7       29.91R
$$

MAZALL-251000-
CENTRAL AND WESTERN MASSACHUSETTS

CITY           SKY/WX    TMP DP  RH WIND       PRES   REMARKS
WORCESTER      PTCLDY    57  49  74 NW7       29.97R
FITCHBURG      CLEAR     55  51  86 N3        29.97R
ORANGE           N/A    N/A N/A N/A MISG      29.97S
SPRINGFIELD    CLEAR     55  54  98 CALM      29.97R
WESTFIELD      CLEAR     55  53  93 CALM      29.97R
NORTH ADAMS    FOG       54  54 100 CALM      30.01R VSB 1/2
PITTSFIELD     CLEAR     52  51  97 CALM      29.99S
$$

RIZALL-251000-
RHODE ISLAND

CITY           SKY/WX    TMP DP  RH WIND       PRES   REMARKS
PROVIDENCE     MOCLDY    64  52  64 N7        29.94R
NEWPORT        CLOUDY    65  54  67 N8        29.93R
BLOCK ISLAND   CLOUDY    66  63  88 N7        29.93S
SMITHFIELD     MOCLDY    57  50  77 CALM      29.96S
WESTERLY       MOCLDY    67  60  78 N6        29.94R
$$

CTZALL-251000-
CONNECTICUT

CITY           SKY/WX    TMP DP  RH WIND       PRES   REMARKS
BRADLEY INTL   PTCLDY    59  54  83 N7        29.96R
HARTFORD       CLEAR     61  55  81 CALM      29.96R
BRIDGEPORT     MOCLDY    66  55  67 N7        29.95R
DANBURY        CLEAR     56  52  86 CALM      29.99R
GROTON         MOCLDY    63  61  93 N9        29.93R
NEW HAVEN      PTCLDY    64  55  72 N6        29.96R
CHESTER        FAIR      63  55  77 N6        29.97R
MERIDEN        CLEAR     61  56  83 CALM      29.97R
WILLIMANTIC    PTCLDY    59  55  87 N3        29.97R
OXFORD         CLEAR     57  48  72 N7        29.99S
$$

MEZ002-015-021-024-NHZ003-005-008-011-012-014-VTZ005-008-251000-
NORTHERN NEW ENGLAND

CITY           SKY/WX    TMP DP  RH WIND       PRES   REMARKS
PORTLAND ME    PTCLDY    56  52  86 W6        29.92S
BANGOR ME      PTCLDY    54  50  86 W5        29.89S
CONCORD NH     CLEAR     50  49  96 CALM      29.95S
MANCHESTER NH  PTCLDY    58  51  78 N6        29.93S
NASHUA NH      CLEAR     55  52  90 CALM      29.96R
PORTSMOUTH NH  PTCLDY    57  54  89 NW6       29.92R
JAFFREY NH     CLEAR     50  48  93 CALM      29.97S
KEENE NH       CLOUDY    52  45  76 CALM      29.98S VSB 1/4
BURLINGTON VT  CLEAR     53  50  89 CALM      29.96S
MT. WASHINGTON FOG       43  43 100 NW25G47     N/A  VSB 0
$$

NYZ052-076-251000-
EASTERN NEW YORK

CITY           SKY/WX    TMP DP  RH WIND       PRES   REMARKS
ALBANY         CLEAR     57  50  77 CALM      29.99S
NEW YORK CITY  PTCLDY    68  54  60 N7        29.95R
$$

ANZALL-251000-
MARINE OBSERVATIONS

STATION/POSITION TIME  TEMP    WIND        PRES    VSBY  WAVE
                       AIR SEA DIR/SP/G                  HT/PER
                 (UTC) (F)     (DEG/KT/KT) (MB)    (MI)  (FT/S)
BOSTON BUOY      NOT AVBL
BUZZARDS BAY     NOT AVBL
NANTUCKET SOUND  NOT AVBL
MASS BAY-STELLWA NOT AVBL
ISLE OF SHOALS   NOT AVBL
S OF BLOCK IS    NOT AVBL
$$

......................KEY.........................
  SKY/WX - SKY CONDITION/PRESENT WEATHER
  TMP    - TEMPERATURE IN FAHRENHEIT
  DWPT   - DEWPOINT IN FAHRENHEIT
  RH     - RELATIVE HUMIDITY IN PERCENT
  WIND   - DIRECTION AND SPEED IN MPH
  PRES   - MEAN SEA LEVEL PRESSURE IN INCHES OF HG
  WCI    - WIND CHILL INDEX
  VSB    - VISIBILITY IN MILES
  HX     - HEAT INDEX
  TC     - TEMPERATURE IN CELSIUS
  VRB    - VARIABLE WIND DIRECTION
  N/A    - NOT AVAILABLE


USA.gov is the U.S. government's official web portal to all federal, state and local government web resources and services.